User: anonymous   Login
Location: Unspecified
(0.0000°N, 0.0000°E)
Time: 21:39:55
(UTC+00:00)
Language:

GEOEYE 1 - Orbit

View from above orbital plane
View from above orbital plane
View from above satellite
View from above satellite

Ground track
Ground track

The orbit data is extracted from the following two-line orbital elements,

1 33331U 08042A   16120.25118565  .00000100  00000-0  28018-4 0  9994
2 33331  98.0810 195.0119 0010234 121.9220 238.2962 14.64199563408534
Epoch (UTC): 29 April 2016 06:01:42
Eccentricity: 0.0010234
inclination: 98.0810°
perigee height: 672 km
apogee height: 687 km
right ascension of ascending node: 195.0119°
argument of perigee: 121.9220°
revolutions per day: 14.64199563
mean anomaly at epoch: 238.2962°
orbit number at epoch: 40853

The dashed part of the orbit path shows where the satellite is in the earth's shadow,  

DLR